CW9197 Juva FI current weather conditions

sailwx.info

Wind from 225 at 2 knots gusting 5

Air temperature -2.8° C
Dewpoint -2.8° C

Last reported at 2014-Dec-18 19:55 UTC.
Time now 2014-Dec-18 20:18 UTC

Location: N 61°53' E 027°53'.
View on Google Maps.

See reports from other nearby stations

  
Tides and Currents Weather Stations Pressure Air Temp Water Temp Dewpoint Dewpoint Depression Visibility Wind Speed Wind Dir Waves Ship Positions
date/time (UTC)wind fromknots sea level pressurealtimeterstation pressurevisibilityair tempwater tempwave heightnotes
2014-Dec-18 19:55 225 2 gusting 5 -2.8
2014-Dec-18 19:45 225 1 gusting 4 -2.8
2014-Dec-18 19:35 225 1 gusting 6 -2.8
2014-Dec-18 19:25 225 1 gusting 6 -2.8
2014-Dec-18 19:15 225 0 gusting 3 -2.8
2014-Dec-18 19:05 225 1 gusting 2 -2.8
2014-Dec-18 18:55 225 -2.8
2014-Dec-18 18:45 225 0 gusting 2 -2.8
2014-Dec-18 18:35 225 0 gusting 4 -2.8
2014-Dec-18 18:25 225 0 gusting 2 -2.8
2014-Dec-18 18:15 225 0 gusting 3 -2.8
2014-Dec-18 18:05 225 -2.8
2014-Dec-18 17:55 225 0 gusting 2 -3.3
2014-Dec-18 17:45 225 1 gusting 2 -2.8
2014-Dec-18 17:35 225 0 gusting 3 -3.3
2014-Dec-18 17:25 225 -3.3
2014-Dec-18 17:15 225 -3.3
2014-Dec-18 17:05 225 0 gusting 1 -2.8
2014-Dec-18 16:55 225 0 gusting 2 -3.3
2014-Dec-18 16:45 225 0 gusting 1 -3.3
2014-Dec-18 16:35 225 -3.3
2014-Dec-18 16:25 225 -3.3
2014-Dec-18 16:15 225 -3.3
2014-Dec-18 16:05 225 0 gusting 1 -2.8
2014-Dec-18 15:55 225 0 gusting 1 -2.8
2014-Dec-18 15:45 225 1 gusting 3 -2.8
2014-Dec-18 15:35 225 3 gusting 5 -2.2
2014-Dec-18 15:25 225 4 gusting 7 -2.2
2014-Dec-18 15:15 225 2 gusting 4 -2.2
2014-Dec-18 15:05 225 2 gusting 5 -2.2
2014-Dec-18 14:55 225 1 gusting 3 -2.2
2014-Dec-18 14:45 225 1 gusting 3 -2.8
2014-Dec-18 14:35 225 1 gusting 3 -2.2
2014-Dec-18 14:25 225 1 gusting 2 -2.2
2014-Dec-18 14:15 225 0 gusting 1 -2.2
2014-Dec-18 14:05 225 1 gusting 3 -2.2
2014-Dec-18 13:55 225 1 gusting 2 -1.7
2014-Dec-18 13:45 225 1 gusting 3 -1.7
2014-Dec-18 13:35 225 1 gusting 2 -1.7
2014-Dec-18 13:25 225 1 gusting 3 -1.7
2014-Dec-18 13:15 225 1 gusting 3 -1.7
2014-Dec-18 13:05 225 1 gusting 2 -1.7
2014-Dec-18 12:55 225 -1.7
2014-Dec-18 12:45 225 1 gusting 2 -1.7
2014-Dec-18 12:35 225 1 gusting 3 -1.7
2014-Dec-18 12:25 225 0 gusting 2 -1.7
2014-Dec-18 12:15 225 1 gusting 5 -1.7
2014-Dec-18 12:05 225 1 gusting 3 -1.7
2014-Dec-18 11:55 225 1 gusting 3 -1.1
2014-Dec-18 11:45 225 0 gusting 2 -1.1
2014-Dec-18 11:35 225 0 gusting 2 -1.1
2014-Dec-18 11:25 225 1 gusting 2 -1.1
2014-Dec-18 11:15 225 1 gusting 3 -1.7
2014-Dec-18 11:05 225 1 gusting 3 -1.1
2014-Dec-18 10:55 225 1 gusting 3 -1.1
2014-Dec-18 10:45 225 1 gusting 2 -1.1
2014-Dec-18 10:35 225 1 gusting 2 -1.1
2014-Dec-18 10:25 225 1 gusting 3 -1.7
2014-Dec-18 10:15 225 1 gusting 3 -1.7
2014-Dec-18 10:05 225 1 gusting 2 -1.1
2014-Dec-18 09:55 225 1 gusting 2 -1.1
2014-Dec-18 09:45 225 0 gusting 1 -1.1
2014-Dec-18 09:35 225 0 gusting 1 -1.1
2014-Dec-18 09:25 225 0 gusting 1 -1.7
2014-Dec-18 09:15 225 1 gusting 2 -1.1
2014-Dec-18 09:05 225 0 gusting 2 -1.1
2014-Dec-18 08:55 225 0 gusting 2 -1.1
2014-Dec-18 08:45 225 1 gusting 3 -1.7
2014-Dec-18 08:35 225 0 gusting 1 -1.7
2014-Dec-18 08:25 225 0 gusting 2 -1.7
2014-Dec-18 08:15 225 0 gusting 1 -1.7
2014-Dec-18 08:05 225 0 gusting 2 -1.7
2014-Dec-18 07:55 225 0 gusting 1 -1.7
2014-Dec-18 07:45 225 0 gusting 3 -1.7
2014-Dec-18 07:35 225 -1.7
2014-Dec-18 07:25 225 -1.7
2014-Dec-18 07:15 225 -1.7
2014-Dec-18 07:05 225 -1.7
2014-Dec-18 06:55 225 0 gusting 1 -1.7
2014-Dec-18 06:45 225 -1.7
2014-Dec-18 05:45 225 -1.7
2014-Dec-18 05:35 225 0 gusting 1 -1.7
2014-Dec-18 05:25 225 -1.7
2014-Dec-18 05:15 225 -1.7
2014-Dec-18 05:05 225 0 gusting 2 -1.7
2014-Dec-18 04:55 225 1 gusting 2 -2.2
2014-Dec-18 04:45 225 0 gusting 1 -1.7
2014-Dec-18 04:35 225 0 gusting 2 -1.7
2014-Dec-18 04:25 225 0 gusting 1 -1.7
2014-Dec-18 04:15 225 0 gusting 1 -1.7
2014-Dec-18 04:05 225 -1.7
2014-Dec-18 03:55 225 0 gusting 1 -1.7
2014-Dec-18 03:45 225 0 gusting 1 -1.7
2014-Dec-18 03:35 225 -1.7
2014-Dec-18 03:25 225 -1.7
2014-Dec-18 03:15 225 0 gusting 1 -2.2
2014-Dec-18 03:05 225 -2.2
2014-Dec-18 02:55 225 -1.7
2014-Dec-18 02:45 225 0 gusting 1 -2.2
2014-Dec-18 02:35 225 2 gusting 5 -2.2
2014-Dec-18 02:25 225 1 gusting 5 -2.2
2014-Dec-18 02:15 225 1 gusting 6 -2.2
2014-Dec-18 02:05 225 3 gusting 8 -2.2
2014-Dec-18 01:55 225 1 gusting 6 -2.2
2014-Dec-18 01:45 225 1 gusting 4 -2.2
2014-Dec-18 01:35 225 1 gusting 6 -2.2
2014-Dec-18 01:25 225 -2.2
2014-Dec-18 01:15 225 1 gusting 5 -2.2
2014-Dec-18 01:05 225 0 gusting 4 -2.2
2014-Dec-18 00:55 225 0 gusting 2 -2.2
2014-Dec-18 00:45 225 2 gusting 5 -2.2
2014-Dec-18 00:35 225 1 gusting 5 -2.2
2014-Dec-18 00:25 225 0 gusting 3 -2.2
2014-Dec-18 00:15 225 2 gusting 5 -2.2
2014-Dec-18 00:05 225 1 gusting 4 -2.2
2014-Dec-17 23:55 225 2 gusting 6 -2.2
2014-Dec-17 23:45 225 2 gusting 5 -2.2
2014-Dec-17 23:35 225 3 gusting 9 -2.2
2014-Dec-17 23:25 225 2 gusting 6 -2.2
2014-Dec-17 23:15 225 2 gusting 8 -2.2
2014-Dec-17 23:05 225 3 gusting 7 -2.2
2014-Dec-17 22:55 224 5 gusting 10 -2.2
2014-Dec-17 22:45 225 5 gusting 13 -2.2
2014-Dec-17 22:35 225 5 gusting 8 -2.2
2014-Dec-17 22:25 225 5 gusting 11 -1.7
2014-Dec-17 22:15 225 3 gusting 7 -1.7
2014-Dec-17 22:05 225 3 gusting 8 -1.1
2014-Dec-17 21:55 225 2 gusting 8 -1.1
2014-Dec-17 21:45 225 1 gusting 3 -1.1
2014-Dec-17 21:35 225 0 gusting 3 -1.1
2014-Dec-17 21:25 225 1 gusting 5 -1.1
2014-Dec-17 21:15 225 0 gusting 1 -1.1
2014-Dec-17 21:10 225 1 gusting 4 -1.1
2014-Dec-17 21:00 225 2 gusting 8 -1.1
2014-Dec-17 20:50 227 2 gusting 8 -1.7
2014-Dec-17 20:40 225 2 gusting 5 -1.1
2014-Dec-17 20:30 225 1 gusting 4 -1.1
2014-Dec-17 20:20 225 1 gusting 3 -1.1
2014-Dec-17 20:10 225 1 gusting 3 -1.1
2014-Dec-17 20:00 225 2 gusting 5 -0.6
2014-Dec-17 19:50 225 1 gusting 6 -0.6
2014-Dec-17 19:40 225 0 gusting 3 -0.0
2014-Dec-17 19:30 225 0 gusting 1 -0.0
2014-Dec-17 19:20 225 0 gusting 1 -0.0
2014-Dec-17 19:10 225 0 gusting 1 -0.0
2014-Dec-17 19:00 225 0 gusting 2 -0.0
2014-Dec-17 18:50 225 0 gusting 2 -0.0
2014-Dec-17 18:40 225 0 gusting 2 -0.0
2014-Dec-17 18:30 225 0 gusting 1 -0.0
2014-Dec-17 18:20 225 1 gusting 3 -0.0
2014-Dec-17 18:10 225 1 gusting 4 -0.0
2014-Dec-17 18:00 225 2 gusting 5 -0.0
2014-Dec-17 17:50 225 2 gusting 5 -0.0
2014-Dec-17 17:40 225 2 gusting 6 -0.0
2014-Dec-17 17:30 225 3 gusting 6 -0.0
2014-Dec-17 17:20 225 3 gusting 6 -0.0
2014-Dec-17 17:10 225 4 gusting 6 -0.0
2014-Dec-17 17:00 225 5 gusting 7 -0.0
2014-Dec-17 16:50 225 3 gusting 6 -0.0
2014-Dec-17 16:40 225 3 gusting 5 -0.0
2014-Dec-17 16:30 225 4 gusting 6 -0.0
2014-Dec-17 16:20 225 4 gusting 6 -0.0
2014-Dec-17 16:10 225 5 gusting 6 -0.0
2014-Dec-17 16:00 225 4 gusting 7 -0.0
2014-Dec-17 15:50 214 5 gusting 6 -0.0
2014-Dec-17 15:40 214 4 gusting 6 -0.0
2014-Dec-17 15:30 217 3 gusting 5 -0.0
2014-Dec-17 15:20 219 4 gusting 6 -0.0
2014-Dec-17 15:10 216 5 gusting 7 -0.0
2014-Dec-17 15:00 215 6 gusting 9 -0.0
2014-Dec-17 14:50 218 5 gusting 6 -0.0
2014-Dec-17 14:40 209 4 gusting 6 -0.0
2014-Dec-17 14:30 220 4 gusting 6 -0.0
2014-Dec-17 14:20 216 5 gusting 6 -0.0
2014-Dec-17 14:10 216 5 gusting 6 -0.0
2014-Dec-17 14:00 215 4 gusting 6 -0.0
2014-Dec-17 13:50 212 4 gusting 6 -0.0
2014-Dec-17 13:40 214 5 gusting 7 -0.0
2014-Dec-17 13:30 211 4 gusting 7 -0.0
2014-Dec-17 13:20 221 5 gusting 7 -0.0
2014-Dec-17 13:10 213 4 gusting 7 -0.0
2014-Dec-17 13:00 220 5 gusting 6 0.6
2014-Dec-17 12:50 220 5 gusting 7 0.6
2014-Dec-17 12:40 216 5 gusting 6 0.6
2014-Dec-17 12:30 217 5 gusting 8 0.6
2014-Dec-17 12:20 219 5 gusting 6 0.6
2014-Dec-17 12:10 218 5 gusting 7 0.6
2014-Dec-17 12:00 210 5 gusting 8 0.6
2014-Dec-17 11:50 205 5 gusting 7 0.6
2014-Dec-17 11:40 202 4 gusting 6 0.6
2014-Dec-17 11:30 197 4 gusting 6 0.6
2014-Dec-17 11:20 186 4 gusting 7 1.1
2014-Dec-17 11:10 189 3 gusting 7 1.1
2014-Dec-17 11:00 183 3 gusting 6 1.1
2014-Dec-17 10:50 185 3 gusting 6 1.1
2014-Dec-17 10:40 190 3 gusting 6 1.1
2014-Dec-17 10:30 190 3 gusting 6 1.1
2014-Dec-17 10:20 184 4 gusting 6 1.1
2014-Dec-17 10:10 185 3 gusting 8 1.1
2014-Dec-17 10:00 186 3 gusting 6 1.1
2014-Dec-17 09:50 186 3 gusting 8 1.1
2014-Dec-17 09:40 190 3 gusting 6 1.1
2014-Dec-17 09:30 177 3 gusting 6 1.1
2014-Dec-17 09:20 184 3 gusting 6 1.1
2014-Dec-17 09:10 178 3 gusting 6 1.1
2014-Dec-17 09:00 182 2 gusting 5 0.6
2014-Dec-17 08:50 182 3 gusting 8 0.6
2014-Dec-17 08:40 183 2 gusting 6 0.6
2014-Dec-17 08:30 179 2 gusting 5 0.6
2014-Dec-17 08:20 182 2 gusting 5 0.6
2014-Dec-17 08:10 185 3 gusting 6 0.6
2014-Dec-17 08:00 186 3 gusting 6 0.6
2014-Dec-17 07:50 188 4 gusting 6 0.6
2014-Dec-17 07:40 198 4 gusting 7 0.6
2014-Dec-17 07:30 201 4 gusting 7 0.6
2014-Dec-17 07:20 195 3 gusting 7 0.6
2014-Dec-17 07:10 188 4 gusting 6 0.6
2014-Dec-17 07:00 191 4 gusting 6 0.6
2014-Dec-17 06:50 191 5 gusting 8 0.6
2014-Dec-17 06:40 191 3 gusting 5 0.6
2014-Dec-17 06:30 195 3 gusting 6 0.6
2014-Dec-17 06:20 186 4 gusting 6 0.6
2014-Dec-17 06:10 189 4 gusting 6 0.6
2014-Dec-17 06:00 188 4 gusting 7 0.6
2014-Dec-17 05:50 192 3 gusting 6 0.6
2014-Dec-17 05:40 190 3 gusting 6 0.6
2014-Dec-17 05:30 199 4 gusting 6 0.6
2014-Dec-17 05:20 190 4 gusting 8 0.6
2014-Dec-17 05:10 192 3 gusting 6 0.6
2014-Dec-17 05:00 198 3 gusting 6 0.6
2014-Dec-17 04:50 204 4 gusting 6 0.6
2014-Dec-17 04:40 188 4 gusting 8 0.6
2014-Dec-17 04:30 204 4 gusting 6 0.6
2014-Dec-17 04:20 199 5 gusting 8 0.6
2014-Dec-17 04:10 202 5 gusting 7 0.6
2014-Dec-17 04:00 199 4 gusting 7 -0.0
2014-Dec-17 03:50 200 4 gusting 6 -0.0
2014-Dec-17 03:40 203 3 gusting 5 -0.0
2014-Dec-17 03:30 198 3 gusting 6 -0.0
2014-Dec-17 03:20 193 3 gusting 6 -0.0
2014-Dec-17 03:10 181 3 gusting 6 -0.0
2014-Dec-17 03:00 180 1 gusting 5 -0.0
2014-Dec-17 02:50 179 1 gusting 3 -0.0
2014-Dec-17 02:40 170 1 gusting 5 -0.0
2014-Dec-17 02:30 188 2 gusting 12 -0.0
2014-Dec-17 02:20 186 3 gusting 6 -0.0
2014-Dec-17 02:10 175 2 gusting 5 0.6
2014-Dec-17 02:00 185 3 gusting 6 0.6
2014-Dec-17 01:50 185 2 gusting 5 0.6
2014-Dec-17 01:40 185 2 gusting 6 0.6
2014-Dec-17 01:30 189 3 gusting 6 0.6
2014-Dec-17 01:20 198 4 gusting 6 0.6
2014-Dec-17 01:10 202 5 gusting 6 0.6
2014-Dec-17 01:00 196 5 gusting 9 0.6
2014-Dec-17 00:50 201 5 gusting 8 0.6
2014-Dec-17 00:40 205 6 gusting 7 0.6
2014-Dec-17 00:30 204 5 gusting 9 0.6
2014-Dec-17 00:20 199 4 gusting 8 0.6
2014-Dec-17 00:10 201 5 gusting 7 0.6
2014-Dec-17 00:00 204 5 gusting 8 0.6
2014-Dec-16 23:50 199 5 gusting 7 0.6
2014-Dec-16 23:40 198 5 gusting 7 0.6
2014-Dec-16 23:30 201 5 gusting 7 0.6
2014-Dec-16 23:20 201 5 gusting 8 0.6
2014-Dec-16 23:10 208 4 gusting 6 0.6
2014-Dec-16 23:00 202 5 gusting 7 0.6
2014-Dec-16 22:50 201 4 gusting 7 -0.0
2014-Dec-16 22:40 190 5 gusting 8 -0.0
2014-Dec-16 22:30 197 4 gusting 7 -0.0
2014-Dec-16 22:20 198 4 gusting 6 -0.0
2014-Dec-16 22:10 198 4 gusting 6 -0.0
2014-Dec-16 22:00 206 4 gusting 6 -0.0
2014-Dec-16 21:50 203 4 gusting 6 -0.0
2014-Dec-16 21:40 208 5 gusting 7 -0.0
2014-Dec-16 21:30 209 5 gusting 6 -0.0
2014-Dec-16 21:20 204 5 gusting 7 -0.0
2014-Dec-16 21:10 206 4 gusting 7 -0.0
2014-Dec-16 21:00 203 5 gusting 6 -0.6
2014-Dec-16 20:50 190 3 gusting 6 -0.0
2014-Dec-16 20:40 199 3 gusting 4 -0.6
2014-Dec-16 20:30 191 3 gusting 6 -0.6
2014-Dec-16 20:20 201 3 gusting 5 -0.6
2014-Dec-16 20:10 197 3 gusting 5 -0.6
2014-Dec-16 20:00 201 2 gusting 5 -0.6